Tracking 25710 objects as of 5-Jul-2022
HD Live streaming from Space Station
objects crossing your sky now

STARLINK-3603

Track STARLINK-3603 now!
10-day predictions
STARLINK-3603 is classified as:


NORAD ID: 51816
Int'l Code: 2022-017BA
Perigee: 545.9 km
Apogee: 547.8 km
Inclination: 53.2 °
Period: 95.4 minutes
Semi major axis: 6917 km
RCS: Unknown
Launch date: February 25, 2022
Source: United States (US)
Launch site: AIR FORCE WESTERN TEST RANGE (AFWTR)
aabbcc
Your satellite tracking list
Your tracking list is empty




NASA's NSSDC Master Catalog

Two Line Element Set (TLE):
1 51816U 22017BA  22186.25001157 -.00015828  00000-0 -97866-3 0  9998
2 51816  53.2165 240.0388 0001377  99.6237 114.9528 15.08835814 21448
Source of the keplerian elements: AFSPC